ELECTRON KICK STAGE R/B, 59225

Orbit data source: Space-Track

ELECTRON KICK STAGE R/B, 59225 is space debris in SSO originally from a launch on Tue, 12 Mar 2024 UTC launched from the Rocket Lab Launch Complex (RLLC). Debris objects in space refer to the collection of defunct objects orbiting the Earth. Examples of debris include non-operational satellites, rocket bodies, and fragments generated from explosions, collisions, or faulty payload assembly.

Loading next visibility...
Identifier
59225, 2024-047B
Orbit
SSO
Country
Flag of USUS
Related business
Manufacturer
Rocket Lab
Mission
Spacecraft
Bus & Motor
KICK STAGE, CURIE
Mass
~40 kg wet, ~40 kg dry
Launch date (UTC)
2024-03-12 (2 years ago)
Launch vehicle
Unknown
Launch site
Rocket Lab Launch Complex (RLLC)
Object type
Payload
Rocket body
Debris
Shape & HBR
Trunc Cone, 0.7 m
Radar Cross Section
0.760 m², Medium (>0.1 m² and < 1m²)

Expand to show TLE details & history
Last TLE update: 2 days ago

TLE from 2 days ago
0 ELECTRON KICK STAGE R/B
1 59225U 24047B   26171.42416191  .00016022  00000-0  53898-3 0  9992
2 59225  97.6386 152.1921 0007732  20.6843 339.4709 15.30858539125669
Epoch: 2026-06-20T10:10Z
TLE epoch observation values (Epoch: 2026-06-20T10:10:47.589Z)
Latitude
0.00002°
Longitude
90.85482°
Altitude
471.386 km
Speed
7.633 km/s
True Right ascension
10h 08m 46s
True Declination
0° 00' 00"
Sunlit
Object was in daylight at epoch
Visualization orbit readout
Latitude
Unknown
Longitude
Unknown
Altitude
Unknown
Speed
Unknown
Apparent Right ascension
Unknown
Apparent Declination
Unknown
Sunlit
N/A
Visualization observer readout
Local Sidereal Time
21:30:10
Azimuth
Unknown
Elevation
Unknown
Doppler factor
Unknown
Orbital elements
Apogee altitude
475.506 km
Perigee altitude
464.916 km
Semi-major axis
6,848.348 km
Eccentricity
0.00077
Inclination
97.6386°
RAAN
152.1921°
Arg. of periapsis
20.6843°
True anomaly
339.4398°
Mean anomaly
339.4709°
Eccentric anomaly
339.45535°
Mean motion
3.8297 °/min
Orbital period
94 mins
BSTAR
0.00053898
Loading maneuver chart data...
Computing Atmospheric mass density...
Loading historical data...
Loading historical data...
Loading historical data...
Loading historical data...
Loading historical data...
Loading historical data...
Loading historical data...
Other satellites on launch #47 in the year 2024 (2024-03-12 UTC)

Documentation

Showing up to 5 results
|